Location: Amsterdam
(30.7274°N, 84.4357°W)
Time: 16:00:30
(UTC+00:00)

Injun/Solrad 3 - Pass Details

Date: 22 February 2026
Orbit: 871 x 985 km, 66.8° (Epoch: 11 March)

Event Time Altitude Azimuth Distance (km) Brightness Sun altitude
Rises 15:04:21 0° 198° (SSW) 3,443 11.1 32.9°
Reaches altitude 10° 15:06:49 10° 196° (SSW) 2,507 10.5 33.3°
Maximum altitude 15:12:34 72° 113° (ESE) 915 8.9 34.2°
Drops below altitude 10° 15:18:25 10° 29° (NNE) 2,546 10.2 35.2°
Sets 15:20:56 0° 28° (NNE) 3,501 10.8 35.6°
